QPF
0.11 0.05 0.12 0.12 0.08 0.02 0.00 0.00 0.00 0.00 0.00 0.00 0.00 0.00 0.00 0.00 0.00 0.00 0.00 0.00 0.00 0.00 0.00 0.00 0.00 0.00 0.00 0.00 0.00 0.00 0.00 0.00
0.07 0.08 0.08 0.07 0.03 0.00 0.00 0.00 0.00 0.00 0.00 0.00 0.00 0.00 0.00 0.00 0.00 0.00 0.00 0.00 0.00 0.00 0.00 0.00 0.00 0.00 0.00 0.00 0.00 0.00 0.00 0.00
0.04 0.04 0.04 0.05 0.06 0.00 0.00 0.00 0.00 0.00 0.00 0.00 0.00 0.00 0.00 0.00 0.00 0.00 0.00 0.00 0.00 0.00 0.00 0.00 0.00 0.00 0.00 0.00 0.00 0.00 0.00 0.00
0.03 0.03 0.02 0.01 0.00 0.00 0.00 0.00 0.00 0.00 0.00 0.00 0.00 0.00 0.00 0.00 0.00 0.00 0.00 0.00 0.00 0.00 0.00 0.00 0.00 0.00 0.00 0.00 0.00 0.00 0.00 0.00
0.01 0.01 0.00 0.00 0.00 0.00 0.00 0.00 0.00 0.00 0.00 0.00 0.00 0.00 0.00 0.00 0.00 0.00 0.00 0.00 0.00 0.00 0.00 0.00 0.00 0.00 0.00 0.00 0.00 0.00 0.00 0.00
0.00 0.00 0.00 0.00 0.00 0.00 0.00 0.00 0.00 0.00 0.00 0.00 0.00 0.00 0.00 0.00 0.00 0.00 0.00 0.00 0.00 0.00 0.00 0.00 0.00 0.00 0.00 0.00 0.00 0.00 0.00 0.00
0.00 0.00 0.00 0.00 0.00 0.00 0.00 0.00 0.00 0.01 0.06 0.08 0.00 0.00 0.00 0.00 0.00 0.00 0.00 0.00 0.00 0.00 0.00 0.00 0.00 0.00 0.00 0.00 0.00 0.00 0.00 0.00
0.00 0.00 0.00 0.00 0.00 0.00 0.00 0.00 0.00 0.00 0.01 0.00 0.00 0.00 0.00 0.01 0.00 0.00 0.00 0.00 0.00 0.00 0.00 0.00 0.00 0.00 0.00 0.00 0.00 0.00 0.00 0.00
0.00 0.00 0.00 0.00 0.00 0.00 0.00 0.00 0.00 0.00 0.00 0.00 0.02 0.01 0.00 0.00 0.00 0.00 0.00 0.00 0.00 0.00 0.00 0.00 0.00 0.00 0.00 0.00 0.00 0.00 0.00 0.00
0.00 0.00 0.00 0.00 0.00 0.00 0.00 0.00 0.00 0.00 0.00 0.00 0.00 0.01 0.00 0.00 0.00 0.00 0.00 0.00 0.00 0.00 0.00 0.00 0.00 0.00 0.00 0.00 0.00 0.00 0.00 0.00
0.00 0.00 0.00 0.00 0.03 0.00 0.00 0.00 0.00 0.00 0.00 0.00 0.00 0.00 0.00 0.00 0.00 0.00 0.00 0.00 0.00 0.00 0.00 0.00 0.00 0.00 0.00 0.00 0.00 0.00 0.00 0.00
0.00 0.00 0.00 0.00 0.00 0.00 0.00 0.00 0.00 0.00 0.00 0.00 0.00 0.00 0.00 0.00 0.00 0.00 0.00 0.00 0.00 0.00 0.00 0.00 0.00 0.00 0.00 0.00 0.00 0.00 0.00 0.00
0.00 0.00 0.00 0.00 0.00 0.00 0.00 0.00 0.00 0.00 0.00 0.00 0.00 0.00 0.00 0.00 0.00 0.00 0.00 0.00 0.00 0.00 0.00 0.00 0.00 0.00 0.00 0.00 0.00 0.00 0.00 0.00
0.00 0.00 0.00 0.00 0.00 0.00 0.00 0.00 0.00 0.00 0.00 0.00 0.00 0.00 0.00 0.00 0.00 0.00 0.00 0.00 0.00 0.00 0.00 0.00 0.00 0.00 0.00 0.00 0.00 0.00 0.00 0.00
0.00 0.00 0.00 0.00 0.00 0.00 0.00 0.00 0.00 0.00 0.00 0.00 0.00 0.00 0.00 0.00 0.00 0.00 0.00 0.00 0.00 0.00 0.00 0.00 0.00 0.00 0.00 0.00 0.00 0.00 0.00 0.00
0.00 0.00 0.00 0.00 0.00 0.00 0.00 0.00 0.00 0.00 0.00 0.00 0.00 0.00 0.00 0.00 0.00 0.00 0.00 0.00 0.00 0.00 0.00 0.00 0.00 0.00 0.00 0.00 0.00 0.00 0.00 0.00
0.00 0.00 0.00 0.00 0.00 0.00 0.00 0.00 0.00 0.00 0.00 0.00 0.00 0.00 0.00 0.00 0.00 0.00 0.00 0.00 0.00 0.00 0.00 0.00 0.00 0.00 0.00 0.00 0.00 0.00 0.00 0.00
0.00 0.00 0.00 0.00 0.00 0.00 0.00 0.00 0.00 0.00 0.00 0.00 0.00 0.00 0.00 0.00 0.00 0.00 0.00 0.00 0.00 0.00 0.00 0.00 0.00 0.00 0.00 0.00 0.00 0.00 0.00 0.00
0.00 0.00 0.00 0.00 0.00 0.00 0.00 0.00 0.00 0.00 0.00 0.00 0.00 0.00 0.00 0.00 0.00 0.00 0.00 0.00 0.00 0.00 0.00 0.00 0.00 0.00 0.00 0.00 0.00 0.00 0.00 0.00
0.00 0.00 0.00 0.00 0.00 0.00 0.00 0.00 0.00 0.00 0.00 0.00 0.00 0.00 0.00 0.00 0.00 0.00 0.00 0.00 0.00 0.00 0.01 0.01 0.00 0.00 0.00 0.00 0.00 0.00 0.00 0.00
MSLP
1016.53 1017.24 1017.64 1018.29 1018.82 1019.44 1019.57 1019.94 1020.14 1020.39 1020.65 1020.78 1021.07 1021.12 1021.13 1021.29 1021.40 1021.33 1021.53 1021.40 1021.41 1021.45 1021.29 1021.31 1021.12 1021.01 1020.70 1020.64 1020.10 1019.84 1019.05 1017.99
1016.51 1017.17 1017.54 1018.08 1018.94 1019.56 1019.90 1020.16 1020.43 1020.58 1020.73 1021.00 1021.01 1021.03 1021.07 1021.18 1021.40 1021.44 1021.54 1021.59 1021.71 1021.55 1021.44 1021.23 1020.91 1020.72 1020.64 1020.36 1019.82 1019.56 1018.74 1017.87
1016.52 1016.98 1017.35 1017.89 1018.86 1019.58 1019.70 1020.11 1020.27 1020.46 1020.79 1020.74 1020.77 1020.43 1020.19 1020.37 1021.21 1021.53 1021.56 1021.60 1021.60 1021.54 1021.25 1020.99 1020.54 1020.32 1020.51 1020.06 1019.72 1019.18 1018.93 1018.41
1016.76 1017.18 1017.80 1017.96 1018.11 1018.82 1019.17 1019.57 1019.32 1019.58 1019.66 1019.85 1019.71 1020.48 1020.39 1020.63 1020.94 1021.18 1021.35 1021.47 1021.35 1021.37 1021.19 1020.75 1020.60 1019.74 1019.59 1019.72 1019.49 1019.70 1018.98 1018.80
1017.14 1017.68 1017.82 1017.60 1018.24 1018.35 1018.60 1019.20 1019.63 1019.94 1019.99 1019.78 1020.42 1020.33 1020.39 1020.37 1020.48 1020.35 1020.36 1021.05 1020.47 1020.72 1020.45 1020.36 1020.58 1020.39 1020.16 1020.06 1020.12 1019.79 1019.36 1019.24
1017.29 1017.47 1017.93 1018.21 1018.28 1018.15 1018.65 1019.05 1019.49 1019.41 1020.00 1020.45 1020.50 1020.52 1020.90 1020.77 1020.47 1020.61 1020.35 1020.43 1020.77 1020.61 1020.40 1020.64 1020.45 1020.37 1020.33 1020.25 1020.19 1020.22 1019.97 1019.92
1017.24 1017.75 1018.37 1018.65 1018.41 1018.82 1019.10 1019.49 1019.72 1020.19 1020.46 1020.75 1020.61 1020.98 1021.60 1021.40 1021.42 1021.05 1021.40 1020.90 1020.67 1020.63 1020.41 1020.44 1020.44 1020.20 1020.39 1020.27 1020.43 1020.35 1020.21 1020.07
1017.77 1018.27 1018.70 1018.29 1018.72 1019.22 1019.57 1019.79 1020.01 1020.29 1020.61 1020.90 1021.18 1021.18 1021.52 1021.51 1021.45 1021.27 1021.25 1021.18 1021.11 1021.14 1021.20 1021.17 1021.07 1020.87 1020.72 1020.38 1020.49 1020.39 1020.27 1020.27
1017.81 1018.19 1018.32 1018.66 1019.21 1019.44 1019.82 1020.09 1020.53 1020.37 1020.52 1021.04 1021.33 1021.23 1021.44 1021.83 1022.02 1022.22 1021.86 1021.76 1021.95 1021.74 1021.63 1021.43 1021.09 1020.82 1020.75 1020.41 1020.43 1020.07 1019.88 1019.99
1017.70 1018.17 1018.55 1018.97 1019.92 1020.53 1020.80 1020.49 1020.42 1021.02 1021.40 1021.57 1022.10 1022.18 1022.35 1022.40 1022.24 1022.36 1022.58 1022.53 1022.42 1022.26 1022.09 1021.78 1021.55 1021.14 1020.83 1020.49 1020.34 1020.24 1019.97 1019.96
1017.65 1018.24 1018.86 1019.83 1020.35 1019.93 1020.17 1020.38 1020.83 1021.34 1021.63 1021.72 1021.88 1022.11 1022.24 1022.22 1022.25 1022.45 1022.63 1022.10 1022.01 1022.13 1021.99 1021.95 1021.61 1021.38 1020.99 1020.71 1020.66 1020.22 1019.79 1019.66
1017.71 1018.37 1019.00 1019.41 1018.83 1019.52 1019.99 1020.17 1020.67 1020.84 1021.27 1021.60 1021.93 1022.12 1022.43 1022.36 1022.09 1022.82 1022.78 1022.18 1022.08 1022.19 1022.44 1022.13 1021.87 1021.28 1021.02 1021.14 1021.05 1020.20 1020.02 1019.74
1017.65 1018.13 1018.73 1018.63 1018.69 1018.97 1019.64 1019.93 1020.61 1021.08 1021.57 1022.29 1022.44 1022.63 1022.62 1022.83 1022.53 1022.43 1022.39 1022.31 1022.47 1022.43 1022.33 1022.23 1021.96 1021.58 1021.06 1021.35 1021.22 1020.78 1019.85 1019.58
1017.38 1017.98 1018.38 1018.42 1018.77 1019.09 1019.35 1019.82 1020.64 1021.24 1021.78 1022.41 1022.56 1022.85 1022.73 1022.73 1022.96 1022.89 1022.73 1022.73 1022.56 1022.44 1022.30 1022.31 1022.27 1022.06 1021.64 1021.46 1021.09 1020.91 1020.17 1020.15
1017.17 1017.70 1018.22 1018.64 1019.23 1019.73 1020.16 1020.53 1020.95 1021.00 1021.42 1021.88 1022.53 1023.12 1023.21 1023.17 1023.09 1023.03 1023.00 1022.85 1022.56 1022.53 1022.45 1022.68 1022.58 1022.52 1022.25 1022.16 1021.62 1021.03 1021.00 1021.14
1017.13 1017.90 1018.76 1019.59 1019.62 1019.96 1020.32 1020.44 1020.76 1022.02 1022.26 1022.56 1022.87 1022.88 1023.03 1023.01 1022.93 1022.98 1022.91 1022.83 1022.72 1022.54 1022.21 1022.87 1023.23 1022.77 1022.66 1022.57 1022.58 1022.30 1021.56 1020.71
1017.62 1018.62 1019.32 1019.88 1020.22 1020.54 1020.81 1021.32 1021.85 1022.26 1022.77 1023.01 1022.99 1023.13 1023.29 1023.25 1023.11 1023.11 1022.90 1022.81 1022.59 1022.64 1022.71 1023.07 1023.38 1023.29 1023.13 1023.07 1022.96 1022.83 1022.40 1021.89
1018.49 1019.01 1019.70 1020.31 1020.82 1021.43 1021.88 1022.27 1022.61 1022.75 1023.25 1023.26 1023.33 1023.42 1023.40 1023.38 1023.40 1023.42 1023.16 1022.74 1022.56 1022.45 1022.82 1023.45 1023.90 1023.97 1023.66 1023.35 1023.27 1023.02 1022.69 1022.53
1018.64 1019.15 1020.07 1020.73 1021.35 1021.90 1022.44 1022.96 1023.29 1023.25 1023.57 1023.62 1023.81 1023.64 1023.55 1023.50 1023.65 1023.35 1022.92 1022.53 1022.52 1023.13 1023.86 1024.23 1024.51 1024.09 1023.73 1023.49 1023.48 1023.31 1023.25 1023.03
1018.65 1019.36 1020.08 1020.98 1021.61 1022.12 1022.69 1023.01 1023.07 1023.42 1023.80 1024.02 1023.88 1023.85 1023.72 1023.78 1023.55 1023.36 1022.93 1022.98 1023.64 1023.82 1024.17 1024.26 1024.25 1023.98 1023.66 1023.80 1023.63 1023.54 1023.29 1023.00
Thickness
5657 5653 5649 5645 5641 5640 5642 5641 5641 5641 5640 5640 5637 5636 5636 5634 5631 5631 5627 5628 5625 5623 5623 5620 5620 5620 5622 5620 5622 5622 5626 5630
5651 5650 5649 5645 5642 5641 5640 5639 5638 5638 5638 5635 5636 5636 5634 5631 5629 5627 5624 5621 5618 5619 5617 5618 5619 5617 5615 5615 5618 5619 5621 5626
5654 5652 5649 5646 5639 5639 5640 5637 5637 5638 5635 5635 5633 5633 5635 5632 5624 5621 5619 5617 5615 5613 5614 5614 5615 5614 5611 5611 5612 5613 5613 5616
5653 5651 5648 5646 5645 5642 5640 5638 5641 5639 5639 5636 5635 5628 5628 5623 5619 5617 5614 5611 5610 5607 5606 5609 5611 5612 5611 5609 5607 5603 5607 5607
5652 5648 5646 5648 5643 5643 5643 5639 5635 5632 5632 5631 5623 5624 5622 5619 5617 5615 5613 5608 5608 5606 5606 5604 5602 5602 5601 5600 5596 5598 5598 5597
5649 5648 5645 5643 5643 5646 5641 5636 5633 5633 5626 5619 5619 5617 5613 5612 5612 5609 5608 5605 5601 5601 5600 5597 5597 5595 5594 5593 5591 5587 5587 5585
5649 5645 5641 5638 5640 5637 5634 5631 5628 5622 5617 5614 5615 5609 5603 5602 5603 5604 5596 5598 5597 5595 5593 5590 5588 5587 5584 5585 5581 5579 5579 5577
5645 5641 5635 5640 5636 5631 5628 5626 5623 5620 5614 5609 5605 5603 5598 5596 5594 5592 5588 5586 5583 5583 5579 5575 5573 5573 5573 5573 5571 5570 5569 5567
5643 5640 5639 5636 5630 5628 5623 5620 5617 5614 5611 5605 5600 5597 5594 5588 5582 5577 5574 5573 5569 5567 5565 5564 5564 5565 5562 5563 5561 5562 5561 5558
5645 5640 5637 5632 5624 5620 5612 5611 5611 5604 5599 5594 5587 5583 5578 5574 5572 5570 5564 5561 5558 5556 5553 5553 5552 5551 5552 5555 5552 5550 5548 5546
5643 5638 5633 5625 5619 5620 5615 5612 5605 5598 5591 5585 5580 5573 5568 5565 5563 5559 5554 5554 5551 5546 5544 5541 5541 5542 5542 5542 5537 5537 5537 5535
5641 5634 5627 5623 5625 5618 5612 5606 5598 5592 5585 5578 5571 5566 5561 5558 5557 5549 5545 5545 5541 5536 5530 5529 5528 5529 5529 5526 5522 5525 5521 5519
5635 5630 5625 5625 5621 5616 5607 5601 5593 5585 5577 5570 5566 5561 5556 5548 5544 5540 5536 5533 5526 5522 5519 5517 5515 5514 5513 5508 5507 5505 5507 5503
5634 5629 5625 5623 5617 5611 5606 5598 5588 5581 5573 5564 5555 5547 5542 5537 5531 5527 5522 5517 5514 5511 5507 5503 5500 5497 5493 5489 5490 5490 5489 5481
5632 5626 5621 5616 5608 5601 5594 5587 5581 5576 5568 5559 5548 5538 5531 5526 5521 5516 5512 5507 5504 5498 5493 5488 5483 5478 5475 5469 5466 5464 5458 5452
5629 5621 5612 5603 5601 5594 5587 5582 5574 5559 5551 5543 5535 5530 5524 5518 5513 5506 5501 5495 5490 5486 5482 5471 5463 5460 5453 5445 5436 5430 5427 5430
5622 5612 5604 5597 5592 5586 5578 5568 5559 5550 5540 5532 5527 5520 5512 5506 5501 5495 5489 5483 5478 5471 5464 5454 5443 5436 5428 5418 5410 5403 5397 5389
5610 5604 5596 5589 5580 5571 5561 5551 5543 5536 5527 5521 5514 5508 5502 5495 5488 5480 5474 5470 5464 5456 5446 5434 5422 5412 5405 5395 5382 5371 5361 5348
5605 5598 5587 5579 5569 5559 5548 5538 5529 5524 5515 5509 5502 5496 5490 5483 5474 5469 5464 5459 5451 5439 5424 5411 5397 5388 5377 5365 5352 5339 5326 5318
5599 5590 5581 5569 5558 5549 5539 5531 5525 5516 5506 5498 5491 5483 5476 5469 5463 5456 5452 5443 5429 5418 5405 5392 5379 5367 5355 5339 5328 5314 5305 5298